Location: Lombard
(41.8800°N, 88.0080°W)
Time: 12:07:54
(UTC-06:00)

Transit 4A - Pass Details

Date: 02 December 2023
Orbit: 870 x 973 km, 66.8° (Epoch: 02 March)

Event Time Altitude Azimuth Distance (km) Brightness Sun altitude
Rises 03:20:42 0° 337° (NNW) 3,619 - -40.3°
Reaches altitude 10° 03:24:35 10° 1° (N) 2,648 - -39.6°
Exits shadow 03:27:03 14° 24° (NNE) 2,320 10.2 -39.1°
Maximum altitude 03:27:57 15° 34° (NE) 2,287 10.2 -39.0°
Drops below altitude 10° 03:31:16 10° 68° (ENE) 2,602 10.9 -38.4°
Sets 03:35:01 0° 91° (E) 3,517 11.9 -37.7°
